sat.trackr.live / text

‹ back to catalog

TELSTAR 14R

NORAD 37602 · 2011-021A

PAYLOAD ACTIVE UNKNOWN

§ Identity

Operator
Country
CA
Launch date
2011-05-20
Launch site
TYMSC
Launch vehicle
Mass (kg)
RCS (m²)
12.59

Purposes: comms

External: N2YO · Heavens-Above · Gunter

§ Orbital elements

Epoch: 2026-05-25T04:10:09.901344Z

Period
1,436.09 min
Inclination
0.0167°
Eccentricity
0.0002446
Mean motion
1.00272292 rev/d
Perigee alt
35,776.1 km
Apogee alt
35,796.8 km
Semi-major
42,164.6 km
B*
0.0000e+0
RAAN
349.4026°
Arg perigee
69.9594°
Mean anomaly
182.9642°
Rev number
5,560

§ Raw data

TELSTAR 14R1 37602U 11021A   26145.17372571 -.00000282  00000+0  00000+0 0  99952 37602   0.0167 349.4026 0002446  69.9594 182.9642  1.00272292 55603

JSON: /api/v1/satellites/37602 · /tle

For live sub-satellite position, see the globe view (requires WebGL).

§ Visibility from observer

Set your observer location to see the next 7 days of passes ≥ 10°. The values pass through the URL so the page stays shareable.

No JS? Fill the form by hand. The geolocation button needs JavaScript.